Stations météo

réclame
Mon MeteoGroup
Aeroport de Lannion, France (7118): Température de l'air & dewpoint: 16.08.2019 02:00:00 - 22.08.2019 02:00:00 (CEST)Aeroport de Lannion, France (7118): Vitesse du vent & gusts: 16.08.2019 02:00:00 - 22.08.2019 02:00:00 (CEST)Aeroport de Lannion, France (7118): Direction du vent: 16.08.2019 02:00:00 - 22.08.2019 02:00:00 (CEST)Aeroport de Lannion, France (7118): reduced air pressure: 16.08.2019 02:00:00 - 22.08.2019 02:00:00 (CEST)Aeroport de Lannion, France (7118): visibility: 16.08.2019 02:00:00 - 22.08.2019 02:00:00 (CEST)Aeroport de Lannion, France (7118): Quantités de précipitations: 16.08.2019 02:00:00 - 22.08.2019 02:00:00 (CEST)
Date & Time tt [°C] td [°C] ff [km/h] ff [knt] fx [km/h] fx [knt] dd ppp [hPa] vv [km] rr [mm]
22.08.2019 02:00:00 11,1 10,2 2 1 4 2 WNW 1026,7 15 0,0
22.08.2019 01:00:00 12,1 10,7 2 1 5 3 SSE 1026,9 36 0,0
22.08.2019 00:00:00 13,1 11,2 2 1 7 4 SSE 1026,9 40 0,0
21.08.2019 23:00:00 14,2 11,7 3 2 7 4 E 1026,8 45 0,0
21.08.2019 22:00:00 15,2 12,3 2 1 12 6 NNE 1026,9 44 0,0
21.08.2019 21:00:00 16,6 12,1 8 4 19 10 N 1026,4 52 0,0
21.08.2019 20:00:00 18,0 9,6 12 7 19 11 N 1025,9 54 0,0
21.08.2019 19:00:00 18,7 10,0 13 7 21 12 N 1025,8 37 0,0
21.08.2019 18:00:00 19,2 11,2 12 6 23 12 N 1026,3 60 0,0
21.08.2019 17:00:00 19,0 11,8 17 9 24 13 N 1026,4 59 0,0
21.08.2019 16:00:00 19,1 12,1 18 10 26 14 NNE 1026,7 19 0,0
21.08.2019 15:00:00 19,5 12,3 15 8 24 13 NNE 1026,9 60 0,0
21.08.2019 14:00:00 19,1 13,1 11 6 18 10 NNE 1026,9 18 0,0
21.08.2019 13:00:00 20,9 11,8 3 2 13 7 S 1027,2 20 0,0
21.08.2019 12:00:00 19,2 12,7 6 3 19 11 ESE 1027,7 20 0,0
21.08.2019 11:00:00 17,0 13,7 12 7 19 10 ESE 1027,8 19 0,0
21.08.2019 10:00:00 13,3 12,8 3 2 8 4 ESE 1028,2 16 0,0
21.08.2019 09:00:00 10,6 10,3 5 3 9 5 SE 1028,6 13 0,0
21.08.2019 08:00:00 8,7 8,4 4 2 6 3 SE 1028,2 19 0,0
21.08.2019 07:00:00 8,3 7,9 3 1 5 3 SE 1028,1 18 0,0
21.08.2019 06:00:00 8,2 7,8 0 0 8 4 N 1028,0 13 0,0
21.08.2019 05:00:00 8,3 7,9 2 1 6 4 ESE 1028,2 14 0,0
21.08.2019 04:00:00 8,9 8,3 4 2 9 5 SSE 1028,2 17 0,0
21.08.2019 03:00:00 9,4 8,8 4 2 9 5 SE 1028,4 16 0,0
21.08.2019 02:00:00 10,0 9,4 3 1 7 4 SE 1028,7 20 0,0
21.08.2019 01:00:00 10,0 9,2 0 0 3 2 N 1029,1 20 0,0
21.08.2019 00:00:00 10,6 9,7 0 0 2 1 N 1029,1 19 0,0
20.08.2019 23:00:00 11,1 9,8 0 0 4 2 N 1028,9 39 0,0
20.08.2019 22:00:00 12,8 10,7 0 0 7 4 N 1028,7 34 0,0
20.08.2019 21:00:00 15,4 11,2 5 3 14 8 NNW 1028,2 49 0,0
20.08.2019 20:00:00 16,6 11,3 10 6 21 12 WNW 1027,8 53 0,0
20.08.2019 19:00:00 17,3 10,9 14 7 23 12 NW 1027,5 20 0,0
20.08.2019 18:00:00 18,0 10,8 16 9 29 16 WNW 1027,3 40 0,0
20.08.2019 17:00:00 18,0 11,1 16 9 29 16 WNW 1027,2 19 0,0
20.08.2019 16:00:00 18,6 11,2 16 8 26 14 NW 1027,1 20 0,0
20.08.2019 15:00:00 18,4 11,0 15 8 26 14 NW 1026,8 20 0,0
20.08.2019 14:00:00 18,8 11,1 14 7 34 18 WNW 1026,5 20 0,0
20.08.2019 13:00:00 17,8 11,8 14 7 22 12 W 1026,6 20 0,0
20.08.2019 12:00:00 17,5 12,8 12 7 21 11 W 1026,3 34 0,0
20.08.2019 11:00:00 17,2 13,1 11 6 19 10 WSW 1026,1 19 0,0
20.08.2019 10:00:00 15,5 14,5 10 5 14 8 WSW 1025,6 18 0,0
20.08.2019 09:00:00 12,8 12,5 5 3 11 6 SSW 1025,2 15 0,0
20.08.2019 08:00:00 10,5 10,0 4 2 10 5 S 1024,7 15 0,0
20.08.2019 07:00:00 10,4 9,9 6 3 9 5 S 1024,0 15 0,0
20.08.2019 06:00:00 10,7 10,2 5 3 8 4 S 1023,5 15 0,0
20.08.2019 05:00:00 10,7 10,2 4 2 10 5 S 1023,3 17 0,0
20.08.2019 04:00:00 11,6 11,0 7 4 12 6 WSW 1023,0 16 0,0
20.08.2019 03:00:00 11,6 10,8 6 4 10 5 WSW 1023,2 19 0,0
20.08.2019 02:00:00 12,1 11,2 9 5 16 9 SW 1023,3 36 0,0
20.08.2019 01:00:00 12,2 11,1 8 5 11 6 SW 1023,2 43 0,0
20.08.2019 00:00:00 12,9 11,5 6 4 17 9 SSW 1022,9 19 0,0
19.08.2019 23:00:00 13,8 12,4 14 7 21 11 W 1022,7 43 0,0
19.08.2019 22:00:00 14,1 12,3 14 7 23 13 W 1022,4 47 0,0
19.08.2019 21:00:00 14,9 12,0 16 8 30 16 W 1021,7 50 0,0
19.08.2019 20:00:00 16,6 12,1 21 11 39 21 W 1021,3 60 0,0
19.08.2019 19:00:00 17,5 11,3 26 14 38 21 W 1020,9 60 0,0
19.08.2019 18:00:00 18,0 11,5 22 12 39 21 W 1020,7 26 0,0
19.08.2019 17:00:00 18,8 12,5 24 13 39 21 W 1020,5 20 0,0
19.08.2019 16:00:00 18,7 11,5 24 13 40 22 W 1020,3 23 0,0
19.08.2019 15:00:00 19,1 10,9 25 14 40 22 W 1020,2 20 0,0
19.08.2019 14:00:00 18,4 12,4 22 12 32 18 W 1020,0 19 0,0
19.08.2019 13:00:00 17,5 12,2 19 10 33 18 W 1019,7 19 0,0
19.08.2019 12:00:00 16,6 12,5 22 12 33 18 WSW 1019,3 50 0,0
19.08.2019 11:00:00 16,3 13,0 20 11 32 18 W 1018,7 19 0,0
19.08.2019 10:00:00 15,9 13,6 16 9 24 13 SW 1018,1 18 0,0
19.08.2019 09:00:00 15,1 13,3 14 7 21 11 SW 1018,0 19 0,0
19.08.2019 08:00:00 13,0 12,1 11 6 17 9 SSW 1017,5 17 0,0
19.08.2019 07:00:00 13,0 11,9 11 6 17 9 SW 1016,9 18 0,0
19.08.2019 06:00:00 12,5 11,4 11 6 20 11 SW 1016,6 18 0,0
19.08.2019 05:00:00 12,8 11,7 12 7 23 12 SSW 1016,2 17 0,0
19.08.2019 04:00:00 13,0 11,7 13 7 21 12 SSW 1016,2 18 0,0
19.08.2019 03:00:00 13,3 11,9 11 6 23 12 SW 1016,0 18 0,0
19.08.2019 02:00:00 13,9 12,3 14 8 22 12 SW 1016,2 18 0,0
19.08.2019 01:00:00 13,8 12,0 13 7 23 13 SW 1015,7 20 0,0
19.08.2019 00:00:00 14,3 12,3 12 6 26 14 SW 1015,3 19 0,0
18.08.2019 23:00:00 14,9 12,4 12 7 24 13 SW 1015,0 40 0,0
18.08.2019 22:00:00 15,8 12,2 17 9 35 19 WSW 1014,4 20 0,0
18.08.2019 21:00:00 15,7 11,5 26 14 39 21 W 1013,7 47 0,0
18.08.2019 20:00:00 16,4 12,4 26 14 50 27 W 1013,3 20 0,0
18.08.2019 19:00:00 17,6 13,3 30 16 53 29 W 1012,9 19 0,0
18.08.2019 18:00:00 18,0 13,1 32 17 49 26 W 1012,7 19 0,0
18.08.2019 17:00:00 18,7 12,2 32 17 50 27 W 1012,2 20 0,0
18.08.2019 16:00:00 18,7 11,0 35 19 49 27 W 1012,1 20 0,0
18.08.2019 15:00:00 18,4 11,7 32 18 49 26 W 1011,8 19 0,0
18.08.2019 14:00:00 18,3 12,3 35 19 51 27 W 1011,1 19 0,0
18.08.2019 13:00:00 18,2 13,3 27 14 43 23 W 1010,8 19 0,0
18.08.2019 12:00:00 17,8 13,7 29 15 44 24 W 1010,3 32 0,0
18.08.2019 11:00:00 17,1 13,6 24 13 35 19 WSW 1009,4 19 0,0
18.08.2019 10:00:00 16,6 14,6 19 11 30 16 WSW 1008,6 19 0,0
18.08.2019 09:00:00 15,9 14,8 17 9 29 15 W 1007,8 19 0,0
18.08.2019 08:00:00 14,9 14,1 18 10 34 19 W 1007,0 45 0,0
18.08.2019 07:00:00 14,9 14,4 19 11 32 17 W 1006,1 10 0,0
18.08.2019 06:00:00 14,5 14,0 13 7 19 11 W 1005,7 44 0,0
18.08.2019 05:00:00 14,2 13,6 8 4 32 17 NW 1005,2 52 0,0
18.08.2019 04:00:00 14,4 13,9 20 11 41 22 NW 1004,4 60 0,0
18.08.2019 03:00:00 14,0 13,5 15 8 26 14 SE 1004,7 19 0,0
18.08.2019 02:00:00 14,3 13,8 15 8 22 12 SSE 1006,0 13 0,0
18.08.2019 01:00:00 14,4 13,8 11 6 17 9 SSE 1006,9 7 0,0
18.08.2019 00:00:00 14,9 14,1 10 5 18 10 SW 1007,7 6 0,0
17.08.2019 23:00:00 15,6 14,3 7 4 11 6 SSW 1008,0 6 0,0
17.08.2019 22:00:00 16,1 13,9 8 4 16 8 S 1007,6 15 0,0
17.08.2019 21:00:00 16,6 13,5 8 4 24 13 SSW 1008,5 50 0,0
17.08.2019 20:00:00 17,4 13,9 14 7 26 14 SSW 1008,8 20 0,0
17.08.2019 19:00:00 17,6 13,7 15 8 25 14 SSW 1009,1 50 0,0
17.08.2019 18:00:00 18,2 15,3 11 6 18 10 W 1009,4 19 0,0
17.08.2019 17:00:00 18,3 15,2 10 5 22 12 WSW 1009,3 18 0,0
17.08.2019 16:00:00 18,6 14,7 14 8 28 15 W 1009,5 19 0,0
17.08.2019 15:00:00 17,8 14,5 16 9 28 15 W 1009,8 20 0,0
17.08.2019 14:00:00 18,5 15,2 14 8 25 13 W 1009,4 18 0,0
17.08.2019 13:00:00 18,0 15,3 19 10 29 16 W 1009,7 20 0,0
17.08.2019 12:00:00 18,0 15,6 19 10 30 16 W 1009,2 19 0,0
17.08.2019 11:00:00 16,8 15,1 9 5 23 12 SW 1009,1 17 0,0
17.08.2019 10:00:00 16,6 15,3 12 7 21 12 WSW 1009,3 16 0,0
17.08.2019 09:00:00 16,2 15,2 12 7 24 13 SW 1008,7 14 0,0
17.08.2019 08:00:00 16,1 15,3 17 9 31 17 W 1008,4 15 0,0
17.08.2019 07:00:00 16,1 15,6 18 10 43 23 WSW 1008,2 16 0,0
17.08.2019 06:00:00 16,2 15,6 28 15 39 21 W 1008,1 2,0 0,0
17.08.2019 05:00:00 17,8 17,3 20 11 34 18 SW 1007,6 3,1 0,0
17.08.2019 04:00:00 17,8 17,2 16 9 36 19 SW 1007,9 11 0,0
17.08.2019 03:00:00 18,0 17,2 22 12 34 18 SW 1008,0 50 0,0
17.08.2019 02:00:00 17,9 17,1 20 11 36 19 SSW 1008,2 7 0,0
17.08.2019 01:00:00 17,9 16,9 19 10 41 22 SW 1008,5 20 0,0
17.08.2019 00:00:00 17,8 16,8 20 11 40 22 SW 1008,9 19 0,0
16.08.2019 23:00:00 17,9 17,3 23 12 39 21 SW 1008,9 60 0,0
16.08.2019 22:00:00 17,3 16,7 18 10 37 20 SSW 1009,0 12 0,0
16.08.2019 21:00:00 17,3 16,2 19 10 37 20 S 1009,3 42 0,0
16.08.2019 20:00:00 17,1 16,0 19 11 42 23 S 1009,6 19 0,0
16.08.2019 19:00:00 17,4 15,6 24 13 59 32 S 1010,1 33 0,0
16.08.2019 18:00:00 18,2 15,1 26 14 50 27 S 1011,0 57 0,0
16.08.2019 17:00:00 18,7 14,6 26 14 55 30 S 1011,7 45 0,0
16.08.2019 16:00:00 19,3 14,3 29 16 53 29 SSW 1012,4 44 0,0
16.08.2019 15:00:00 18,9 14,2 25 14 51 27 S 1012,6 50 0,0
16.08.2019 14:00:00 19,5 14,5 28 15 51 28 S 1013,4 58 0,0
16.08.2019 13:00:00 18,8 14,1 32 18 56 30 SSW 1014,0 60 0,0
16.08.2019 12:00:00 18,2 13,7 27 15 43 23 SSW 1014,5 54 0,0
16.08.2019 11:00:00 18,1 13,8 23 12 40 21 SSW 1015,2 56 0,0
16.08.2019 10:00:00 17,1 14,0 22 12 39 21 S 1015,8 46 0,0
16.08.2019 09:00:00 15,7 14,4 16 8 24 13 S 1016,2 20 0,0
16.08.2019 08:00:00 14,1 13,5 7 4 16 9 SSE 1016,9 14 0,0
16.08.2019 07:00:00 13,8 13,2 11 6 17 9 SSE 1017,1 14 0,0
16.08.2019 06:00:00 13,5 12,9 8 5 14 8 S 1018,0 14 0,0
16.08.2019 05:00:00 13,0 12,4 8 4 22 12 SSE 1018,7 12 0,0
16.08.2019 04:00:00 13,3 12,7 9 5 15 8 S 1019,2 18 0,0
16.08.2019 03:00:00 13,9 13,1 9 5 15 8 S 1019,4 18 0,0
16.08.2019 02:00:00 14,3 13,2 8 4 12 6 S 1020,2 40 0,0

tt = Température de l'air
td = dewpoint
ff = Vitesse du vent
fx = gusts
dd = Direction du vent
ppp = reduced air pressure
vv = visibility
rr = Quantités de précipitations

stations d'obs. à proximité